Theta_e
335 333 333 333 335 334 333 332 332 332 332 331 330 329 329 329 329 329 329 329 327 327 326 326 325 324 323 323 323 324 325 324 320 317 314 313 311 311 314 313 312 315 319 318 317 313 308 302 301 304 306 308 307 308 307 306 305 307 307 309 306 305 307
335 332 331 332 332 332 331 331 332 332 331 330 330 328 328 328 328 328 327 326 324 323 323 323 323 323 322 321 321 321 321 321 320 318 313 310 311 310 312 312 311 309 310 313 313 313 308 306 303 304 304 308 308 306 309 309 307 307 307 306 306 305 307
332 331 332 331 331 331 330 331 330 329 327 327 328 327 327 327 326 326 325 324 323 322 320 320 319 319 319 319 319 319 320 319 319 319 318 318 318 318 317 317 313 311 309 309 309 307 306 307 304 303 306 307 305 306 308 308 308 306 306 307 307 305 306
332 330 330 331 330 330 329 329 328 327 326 325 326 327 326 326 326 325 323 322 321 320 317 316 315 314 315 317 318 318 318 318 317 316 317 317 316 315 314 313 312 311 310 309 308 309 310 306 303 302 302 302 302 304 306 307 308 305 305 306 305 305 306
333 331 330 329 330 329 328 327 326 326 326 326 326 325 325 324 324 322 322 321 319 318 316 315 315 314 314 314 314 315 316 317 317 316 316 314 314 312 312 311 311 312 312 310 309 311 310 308 305 302 302 303 302 302 304 310 307 304 304 304 304 304 304
333 333 331 330 330 328 328 327 326 325 325 324 324 324 323 323 322 321 321 319 318 318 316 315 315 315 315 315 315 315 316 316 317 317 315 315 314 311 310 311 310 311 310 311 312 311 311 311 311 303 301 303 303 303 303 303 302 303 303 303 304 303 303
333 333 333 330 330 329 329 328 327 326 324 324 323 324 322 322 321 321 320 318 317 316 315 314 314 313 314 311 313 313 313 314 315 316 314 314 314 313 313 310 310 310 310 311 311 310 309 309 307 307 308 308 306 303 304 303 302 301 302 303 304 304 303
333 332 331 331 330 331 329 328 327 326 325 324 323 323 323 323 321 319 318 316 316 315 315 314 314 314 314 313 312 313 313 314 314 313 313 313 312 312 312 311 310 309 309 310 310 309 309 308 307 307 306 305 305 302 302 301 302 300 299 303 304 304 304
334 333 332 332 332 332 331 328 327 327 326 324 323 322 321 320 318 317 316 315 314 314 314 313 313 313 313 312 311 311 311 312 311 311 312 313 312 312 311 311 310 309 310 309 310 309 308 308 308 306 306 305 303 299 302 302 300 299 302 301 303 304 304
333 333 331 331 331 329 329 329 327 327 326 324 322 321 320 319 318 316 315 313 313 313 313 312 311 311 311 312 311 311 311 312 311 310 310 310 311 311 310 310 309 309 309 310 310 310 309 309 307 306 305 304 305 301 300 300 300 298 300 302 300 302 304
333 332 331 330 330 328 327 327 327 325 324 323 321 320 319 317 316 315 313 312 313 313 312 311 311 311 312 311 311 310 310 311 310 310 310 310 310 310 309 309 309 308 309 308 308 309 309 308 307 307 305 305 305 303 302 300 301 301 300 303 303 301 304
333 332 331 330 329 327 326 326 325 324 323 322 320 319 318 316 315 314 313 312 312 311 312 312 312 312 311 310 310 309 310 310 309 308 309 309 309 309 308 308 309 308 309 308 308 308 308 308 307 306 307 306 305 305 303 302 299 302 304 301 303 304 303
333 331 330 328 326 326 325 325 324 322 321 320 319 318 316 314 314 313 312 310 310 311 310 311 311 311 311 310 310 310 310 309 307 307 308 309 309 309 309 308 308 308 308 308 308 308 306 307 307 306 306 306 305 305 304 303 301 300 304 303 303 304 305
332 330 328 327 326 325 325 324 323 322 320 319 318 316 315 314 312 311 310 310 310 310 310 310 311 311 310 309 309 309 308 308 307 307 307 307 307 307 306 305 306 307 308 308 307 306 306 306 306 306 305 305 304 305 303 303 301 301 304 306 305 304 306
330 327 326 326 325 325 326 324 323 321 320 319 317 315 314 313 312 310 309 309 309 309 309 309 310 311 309 309 308 308 308 307 306 306 307 306 307 306 307 306 305 306 307 306 306 306 305 304 304 304 303 304 303 304 305 303 301 301 300 304 304 306 305
328 327 324 323 324 324 323 323 322 320 319 318 317 315 313 312 311 310 309 309 308 309 309 309 311 310 309 308 307 308 308 307 306 306 305 305 305 307 306 306 306 307 308 306 306 306 307 306 305 304 304 304 304 304 304 304 303 300 300 301 305 303 304
326 325 323 322 323 324 323 322 321 319 318 317 316 316 314 312 310 310 309 308 308 308 308 309 309 309 308 308 307 306 306 306 306 306 305 305 305 306 306 306 306 307 307 306 306 305 306 306 305 304 305 305 304 304 305 305 305 302 302 301 303 302 303
324 323 323 322 323 323 323 322 321 319 318 316 316 314 312 311 311 309 309 308 308 308 309 308 308 307 308 308 307 306 306 305 306 306 306 306 306 306 306 306 306 306 306 306 306 305 305 306 305 304 304 304 304 304 305 305 304 304 302 301 302 303 303
323 323 323 322 322 323 322 321 321 318 317 316 316 314 312 311 310 309 309 308 309 309 308 307 307 307 307 308 307 307 306 306 306 306 305 306 306 307 306 306 306 306 306 306 305 305 306 306 306 305 304 304 304 304 305 304 304 303 302 301 302 301 303
323 323 323 323 323 323 322 321 319 317 317 317 316 313 312 311 311 310 309 309 309 309 309 308 308 308 307 307 307 306 306 306 305 306 306 305 306 307 307 307 306 306 305 305 304 304 305 306 306 304 303 304 303 303 303 303 302 302 301 301 301 301 300
323 324 323 323 322 323 322 321 318 317 317 316 315 313 312 312 312 311 310 310 310 310 309 307 307 307 307 307 307 306 306 305 305 306 306 306 306 306 307 306 305 304 303 302 302 302 302 304 305 303 302 302 302 302 302 302 301 300 300 300 299 299 300
325 325 323 322 321 322 321 320 318 316 316 316 315 314 314 313 311 310 310 310 310 310 309 308 307 307 308 307 307 306 306 305 305 305 305 305 306 306 306 305 303 300 299 298 300 300 299 298 300 301 301 301 301 301 301 301 300 299 299 299 299 300 299
324 323 322 321 321 321 320 319 317 316 315 315 315 315 314 313 312 311 310 310 310 309 308 309 308 305 305 308 307 306 306 306 305 305 305 305 305 305 303 302 299 298 298 299 298 297 296 297 298 299 298 298 298 299 299 299 298 298 298 298 298 298 297
323 321 321 321 321 321 319 318 316 315 315 314 314 314 313 312 312 311 310 310 309 309 308 308 297 295 295 301 308 308 306 306 306 305 305 305 304 304 303 300 299 300 300 299 301 296 296 295 295 295 295 298 300 298 297 297 297 298 297 299 299 298 297
320 320 320 320 319 320 319 317 315 314 314 314 314 314 313 312 312 312 311 310 310 309 309 300 295 295 296 295 299 312 308 307 307 306 305 304 304 304 305 305 305 306 306 304 305 301 299 295 293 293 292 293 293 293 294 297 296 297 298 298 298 298 297
320 320 319 319 318 319 319 316 313 312 313 314 314 312 312 312 312 312 311 310 310 309 308 296 295 295 295 296 295 301 308 307 306 306 306 305 304 303 304 304 304 304 300 299 302 304 305 302 296 294 295 294 293 292 290 289 292 297 299 299 299 298 298
319 319 318 317 317 317 317 315 313 312 313 313 313 313 313 312 312 311 311 311 310 309 307 297 295 294 294 294 295 297 309 307 307 306 305 306 306 305 305 305 304 303 303 304 303 303 304 304 304 304 302 301 300 300 295 292 290 290 295 300 300 298 300
318 317 317 316 316 316 318 314 312 312 312 312 311 311 312 311 312 311 311 311 310 309 307 295 294 294 293 294 293 296 309 307 307 306 305 306 305 304 304 306 306 305 304 304 301 298 299 301 303 304 303 303 304 305 304 303 303 302 301 301 302 301 302
317 316 316 315 314 313 313 312 311 312 312 312 312 311 311 312 311 311 310 310 309 308 305 293 294 294 293 294 293 304 308 306 306 305 305 305 305 306 304 304 304 304 304 303 298 290 295 298 300 303 302 303 304 305 305 305 298 298 302 303 303 303 303
316 316 315 314 313 313 312 311 311 311 311 313 312 310 311 310 311 310 309 309 309 308 303 296 293 293 293 292 295 303 306 306 305 306 305 305 305 306 305 304 304 304 303 303 296 290 291 293 299 302 302 303 304 304 304 307 297 292 293 293 293 293 292
315 314 314 312 312 312 312 311 311 311 309 309 311 310 309 310 310 310 309 309 308 307 303 298 292 293 293 292 297 302 303 306 306 304 306 306 306 306 306 304 302 304 304 304 290 289 290 296 299 303 302 302 303 303 303 303 304 307 294 292 292 292 292
314 313 313 313 313 312 311 311 311 311 310 309 308 309 309 309 311 309 309 309 309 308 305 299 292 292 292 292 298 303 303 305 304 305 306 306 305 306 306 303 302 301 300 300 285 289 289 295 299 302 302 302 302 302 302 301 301 301 302 303 305 307 306
314 313 312 312 312 311 311 310 310 309 309 308 307 307 307 307 306 306 308 308 308 309 307 302 298 292 293 292 294 303 304 304 304 305 305 305 304 305 306 305 299 291 289 289 289 289 290 290 297 299 302 303 301 300 300 299 300 300 301 302 303 303 303
313 311 310 310 311 310 310 310 309 309 308 308 307 307 306 307 307 307 308 308 308 308 309 305 301 292 293 292 293 296 303 305 306 305 304 303 303 303 303 304 304 294 290 290 289 289 289 289 290 298 299 302 300 300 294 298 299 300 302 303 302 302 302
312 311 310 309 308 308 309 308 307 307 307 306 306 306 305 305 305 305 307 307 309 307 309 305 305 293 292 292 292 292 300 305 303 306 304 303 302 302 303 302 303 296 290 290 289 290 289 289 289 297 302 291 289 288 299 297 298 301 302 301 300 300 300
308 308 308 308 307 306 306 306 306 307 306 305 304 304 304 304 304 304 305 306 308 306 307 306 299 298 292 292 292 292 292 298 293 304 303 302 302 302 304 304 303 293 290 290 290 289 289 289 290 296 292 291 291 289 292 297 298 301 301 300 300 300 299
308 307 307 306 305 305 304 305 305 304 304 303 302 303 302 302 302 302 303 303 305 305 307 307 298 296 295 290 291 291 291 290 290 301 304 304 304 302 303 304 298 290 290 290 289 289 289 289 294 291 290 289 289 291 296 297 298 301 299 299 299 299 299
Wind_Speed
8 9 9 7 6 6 6 5 5 5 2 1 1 1 1 1 2 2 2 2 2 3 3 3 3 3 3 4 4 4 4 3 2 3 3 3 3 4 4 3 3 3 4 4 5 2 3 6 5 3 3 2 2 2 3 3 3 3 2 3 5 4 4
6 9 8 8 7 6 6 4 4 4 3 2 2 2 1 2 2 2 2 2 3 4 4 4 4 5 5 5 4 4 4 4 4 4 4 4 4 4 4 4 5 4 4 4 3 3 2 4 5 6 5 4 2 3 2 2 2 2 2 3 3 5 5
9 9 9 9 8 7 8 6 5 4 4 3 3 2 3 4 2 3 3 4 4 5 5 6 6 6 6 6 6 6 5 6 5 5 5 4 4 3 3 1 3 3 3 3 2 1 2 5 1 3 4 7 5 4 1 2 4 1 2 3 3 5 4
11 11 10 10 9 8 8 7 7 6 4 4 3 3 3 3 3 3 4 4 5 5 5 5 5 6 6 6 7 8 7 7 6 6 6 6 5 5 5 4 3 4 3 3 3 2 1 2 2 2 1 1 1 5 4 0 3 1 2 2 3 4 4
12 10 11 10 10 10 9 8 7 6 6 5 4 4 4 4 3 4 4 5 5 5 5 5 5 6 6 6 6 6 7 7 6 6 6 6 6 5 6 5 5 4 4 4 3 3 3 2 1 1 1 2 2 3 4 6 4 2 2 3 4 4 5
11 11 11 10 10 9 8 8 8 7 6 6 5 5 5 4 4 4 4 4 5 5 6 6 6 7 6 6 6 7 6 6 5 5 5 6 6 5 5 4 4 4 4 4 3 3 2 2 3 1 3 3 1 2 3 2 3 4 4 4 4 5 6
12 11 10 10 10 9 8 8 7 7 6 6 5 5 5 6 4 4 5 6 6 6 6 7 7 7 7 7 7 7 7 6 6 7 7 7 6 5 4 5 5 5 5 4 4 4 4 4 4 4 2 2 3 1 3 2 4 4 5 4 4 5 6
13 11 10 9 11 11 10 9 7 6 6 5 5 6 6 5 6 6 6 6 6 7 7 7 7 7 7 7 7 7 6 6 6 6 6 6 6 6 6 5 5 5 5 4 4 5 5 5 4 4 5 2 4 1 1 4 3 6 7 5 4 6 7
12 10 8 8 9 8 8 9 8 7 6 6 6 6 7 7 7 7 7 7 7 7 7 7 7 7 6 6 7 6 7 5 7 8 7 7 6 6 6 6 5 5 4 4 4 5 5 5 5 5 5 5 5 2 1 3 4 5 7 6 5 6 7
13 13 11 11 10 10 8 6 6 7 6 5 7 7 7 7 7 7 7 7 7 7 7 7 7 7 7 6 6 7 6 6 6 6 5 5 6 6 6 6 5 5 4 4 5 4 4 4 5 5 5 6 6 4 3 2 4 5 6 7 6 6 8
13 13 12 12 11 10 9 8 7 5 7 7 8 8 7 8 7 8 7 7 7 7 7 7 7 7 7 6 7 6 6 6 6 5 5 5 6 6 5 5 5 5 5 5 5 4 4 4 4 5 5 6 6 5 4 4 2 4 5 6 6 7 8
11 11 11 12 10 10 10 9 8 7 7 9 9 9 8 8 8 8 8 8 7 8 7 7 7 6 7 7 6 6 6 5 6 6 5 5 5 5 6 6 5 5 4 4 4 4 4 3 3 4 4 4 6 5 4 4 4 3 5 6 7 8 8
12 12 13 12 10 10 10 8 8 9 9 9 9 9 9 9 9 9 8 8 8 8 8 7 6 7 6 6 6 5 5 6 6 6 6 5 4 5 5 5 4 4 3 3 3 3 3 4 4 3 4 3 4 4 4 4 4 5 4 6 7 8 9
12 12 13 12 11 11 9 8 8 8 9 9 10 9 9 9 9 9 9 9 9 8 8 7 6 6 6 6 6 6 6 6 6 6 6 6 5 6 6 6 6 5 3 3 3 3 3 3 3 3 3 3 4 3 4 4 5 5 5 5 6 7 7
14 12 12 11 11 10 9 8 8 9 10 10 10 9 10 9 9 10 9 9 9 9 8 8 7 6 6 7 6 5 5 6 7 7 6 6 5 4 5 6 6 5 4 4 4 3 3 3 3 4 4 4 4 4 4 5 5 6 7 6 7 7 7
14 14 13 11 11 10 9 9 9 10 10 10 9 9 10 9 10 10 9 9 9 8 8 8 6 7 7 7 7 6 6 6 6 6 6 6 6 6 6 5 5 4 2 3 3 3 3 3 4 4 3 3 3 4 4 4 5 6 8 7 7 8 8
14 13 13 10 12 11 10 9 9 10 11 9 10 9 10 10 10 10 10 10 9 9 9 7 7 7 8 7 7 7 7 7 6 6 6 6 6 6 6 5 4 4 3 3 3 3 3 3 3 3 3 2 2 4 4 4 5 6 6 8 7 8 8
14 13 12 11 12 11 9 9 9 11 10 10 10 10 10 10 10 10 9 10 10 9 9 8 8 8 7 7 7 7 7 7 6 6 6 6 5 6 5 5 4 3 3 3 3 3 4 4 4 4 4 4 4 4 4 5 5 6 6 7 8 7 7
14 13 12 12 13 11 10 9 10 10 11 11 11 10 10 9 9 10 10 10 9 9 9 8 8 8 8 7 7 6 6 6 6 6 6 6 5 5 5 4 4 3 3 3 3 3 3 3 3 3 4 4 5 5 5 5 5 6 6 7 7 7 7
12 12 12 12 11 11 10 10 10 11 11 11 11 10 10 10 9 10 10 9 10 9 9 8 8 8 8 8 7 7 7 7 7 6 6 6 6 5 5 4 4 3 3 3 3 3 3 1 2 3 4 4 5 5 6 5 6 6 6 7 6 7 7
12 13 12 12 11 11 10 10 11 10 11 11 11 11 11 10 9 9 9 9 9 9 9 8 8 8 8 8 7 7 7 7 6 6 6 6 5 5 4 5 4 5 5 6 6 5 5 4 3 3 3 4 5 5 5 5 5 6 6 6 6 7 7
13 13 13 13 12 11 10 10 11 10 10 10 9 10 10 10 10 10 10 9 10 8 8 8 7 8 8 8 8 8 7 7 7 6 6 6 5 5 5 5 5 6 7 6 6 6 5 5 5 4 4 5 5 5 5 5 5 5 6 6 6 6 7
14 12 13 13 12 11 10 10 10 11 11 11 10 10 11 10 10 10 11 10 9 8 7 6 7 8 7 8 8 7 6 7 7 6 6 6 5 5 5 5 6 7 4 3 2 1 1 4 5 5 4 5 6 5 5 5 5 6 6 6 6 7 8
14 13 13 12 12 13 12 11 10 11 11 11 11 11 10 11 10 10 11 10 10 8 8 6 12 10 7 4 7 7 7 7 7 6 6 5 5 5 5 6 5 6 5 5 4 6 5 4 4 4 5 5 5 4 5 6 5 5 6 6 6 7 8
13 13 13 13 13 13 11 11 11 11 11 12 11 10 11 11 10 10 9 10 10 9 7 12 12 9 6 5 7 3 7 7 6 6 6 6 6 5 4 3 3 3 3 2 3 6 6 8 8 8 7 7 7 7 6 4 5 6 6 6 7 7 8
14 14 13 13 12 12 11 12 11 12 12 11 10 11 11 11 10 10 10 11 10 9 9 13 13 10 6 3 2 4 7 6 7 6 6 7 6 6 6 5 3 2 2 1 4 5 6 8 9 11 11 9 9 9 9 8 8 6 6 6 6 7 7
14 14 13 13 12 12 13 13 11 10 10 10 10 11 11 11 10 10 10 10 10 9 10 12 14 10 8 3 2 4 4 7 6 6 6 5 5 6 5 6 5 4 5 5 2 2 4 3 5 7 8 7 7 9 10 11 11 12 11 7 7 7 7
14 14 14 13 12 12 11 11 12 11 10 10 10 10 10 11 10 10 10 9 9 9 9 14 14 12 9 7 2 2 3 7 6 6 6 5 4 4 4 3 3 4 3 1 4 4 5 6 6 4 4 4 6 7 8 8 6 4 3 4 6 6 7
14 14 14 13 13 13 13 12 12 10 10 9 8 8 9 9 9 10 10 9 8 9 10 16 14 13 10 9 4 3 4 6 6 7 6 6 6 5 5 4 4 3 3 3 5 1 3 5 7 8 4 4 4 4 4 2 3 7 7 5 5 6 7
14 14 14 14 13 13 13 12 11 10 9 7 8 8 7 8 8 8 10 9 9 8 11 14 15 13 11 10 6 6 5 6 6 5 6 6 6 5 5 6 5 4 5 4 7 3 3 3 7 8 4 4 4 4 3 2 11 12 12 13 14 15 15
14 14 13 14 13 12 11 10 11 9 11 10 8 7 8 8 8 8 9 9 9 9 10 12 16 14 13 11 9 7 5 5 5 6 6 6 5 5 4 7 4 1 4 5 7 4 4 4 7 7 4 5 6 4 3 4 4 5 13 14 16 16 17
14 14 13 13 12 13 11 10 9 9 9 9 9 8 8 6 5 6 7 7 7 9 11 12 14 15 13 13 9 7 6 5 6 6 6 6 5 5 6 6 5 2 5 5 5 3 4 4 7 8 5 6 6 5 4 7 7 8 8 8 7 7 7
13 13 13 12 11 11 10 9 9 10 9 8 8 8 8 8 10 9 9 9 7 8 10 11 12 14 13 12 12 8 7 6 7 6 5 5 6 5 5 5 7 6 5 4 2 2 5 4 5 7 7 6 5 5 6 8 8 8 9 9 9 8 8
14 12 11 11 11 11 10 10 10 9 10 9 9 8 9 8 8 8 8 9 9 9 8 11 11 14 13 12 13 11 6 6 6 7 7 6 5 6 6 6 5 10 9 6 4 4 5 7 6 6 8 6 4 6 7 8 10 11 10 8 7 7 7
8 8 9 10 10 10 9 9 9 10 9 9 10 9 9 7 7 7 8 9 8 10 8 13 10 12 13 13 12 13 8 2 7 2 5 5 6 5 5 5 4 11 13 9 7 6 6 7 7 5 6 5 6 6 7 9 10 9 7 6 7 7 7
9 8 8 9 10 10 9 8 8 8 7 8 9 9 9 8 8 8 8 9 8 9 8 8 13 11 12 12 12 11 13 7 8 4 3 5 5 5 3 3 7 15 11 10 7 7 7 7 5 7 12 13 10 10 8 8 10 9 6 6 7 6 7
11 10 10 10 10 10 9 9 9 8 8 8 8 8 8 8 8 9 9 9 8 9 8 7 11 14 11 12 11 11 10 7 3 4 3 3 2 3 3 2 9 14 10 9 8 7 7 6 7 10 9 9 10 9 8 10 10 7 6 6 6 6 6
Wind_Direction
170 149 155 150 144 137 127 108 103 87 127 219 147 213 120 162 186 169 172 106 131 125 126 109 96 83 98 80 58 66 54 50 86 108 109 97 91 85 49 63 94 59 48 44 7 306 177 160 157 120 120 87 80 29 4 7 15 355 32 327 340 358 15
135 137 151 152 147 130 109 121 125 136 172 156 141 138 195 113 165 149 129 150 134 121 111 102 88 83 77 82 83 76 76 73 55 79 104 95 101 98 94 75 53 60 77 52 31 346 353 177 159 171 173 138 183 96 3 322 327 330 332 1 325 356 10
145 154 158 156 154 151 156 146 150 154 156 154 150 141 187 153 136 123 131 105 91 78 82 86 93 90 85 81 79 81 86 80 64 56 64 67 71 47 61 100 115 104 82 86 69 95 43 356 83 153 178 181 182 120 139 274 242 9 295 24 337 11 352
166 163 164 159 156 161 160 161 164 156 158 150 152 153 146 115 140 114 110 112 101 105 104 105 100 100 95 89 86 83 79 81 80 80 73 74 69 65 61 58 67 49 51 73 50 25 358 133 143 148 153 57 141 153 173 63 264 8 350 14 9 11 343
169 168 166 165 165 166 166 163 162 157 160 155 159 156 154 141 133 123 111 107 104 102 101 103 103 98 97 96 90 85 81 81 87 84 86 82 83 84 73 68 62 63 58 60 59 21 12 25 348 52 65 119 124 93 131 184 215 54 1 31 3 10 360
177 171 169 172 169 165 169 167 163 163 161 161 167 164 148 160 138 138 129 109 102 93 98 99 95 95 94 93 88 82 80 80 74 75 75 71 78 81 78 64 66 75 76 62 35 35 32 6 335 107 79 33 1 100 99 84 55 73 357 40 0 20 357
174 172 174 168 168 172 171 171 167 164 164 166 165 164 151 165 140 122 114 106 103 109 110 108 108 106 104 101 98 95 92 89 88 88 85 82 76 76 76 81 75 73 66 50 53 51 37 34 36 16 329 102 331 121 130 117 82 30 24 20 9 20 360
173 170 168 165 175 174 164 164 168 163 162 164 162 157 157 139 130 127 124 120 114 113 111 108 104 101 100 100 99 95 91 85 88 88 88 85 82 81 82 85 84 73 64 56 46 47 48 41 36 12 345 306 174 70 70 50 22 50 16 7 3 19 0
171 165 164 167 168 174 167 167 157 160 157 163 161 161 159 147 140 133 128 123 125 121 119 117 115 110 109 107 102 100 96 97 100 98 99 93 89 87 84 83 79 71 56 55 63 52 43 43 41 22 7 2 353 82 129 95 24 21 23 360 358 17 355
168 168 164 167 162 162 155 153 162 162 153 149 157 163 158 145 144 138 129 127 128 125 118 115 115 116 118 108 106 106 104 102 95 90 92 97 93 85 82 78 80 81 70 67 61 54 49 46 47 37 33 21 356 358 9 44 68 355 10 358 346 358 350
170 166 162 162 159 146 140 148 148 148 175 165 166 162 155 145 138 136 134 132 129 128 127 125 121 118 117 111 110 108 109 113 110 107 100 94 90 86 85 85 82 75 68 67 61 54 54 52 45 46 42 37 19 25 12 357 35 30 349 346 349 338 343
169 155 154 160 152 145 143 144 154 165 159 161 163 162 151 145 143 140 138 134 134 132 127 123 126 123 117 115 115 116 123 123 115 113 108 102 100 99 97 95 92 88 83 71 69 64 52 36 53 64 54 54 40 25 4 344 334 51 352 337 336 332 335
162 158 161 155 149 149 143 148 164 156 162 163 162 159 154 149 147 143 143 140 137 135 134 136 130 125 124 123 128 126 123 126 124 117 111 103 104 107 103 94 85 93 99 95 76 71 72 60 41 40 49 48 59 28 0 339 330 327 350 334 327 323 338
157 159 156 151 148 148 141 155 160 162 160 164 160 160 154 151 149 149 145 145 144 141 139 138 135 130 128 128 123 127 137 131 124 113 111 114 111 107 105 102 98 84 64 74 96 85 62 69 70 64 38 41 42 31 8 339 326 323 327 335 320 328 331
163 157 147 150 150 151 157 161 162 161 164 159 164 157 154 150 151 151 149 148 147 144 143 139 139 136 130 128 129 137 137 132 120 124 128 119 112 107 102 95 87 74 61 67 41 41 39 49 56 47 51 24 36 6 13 341 336 317 320 324 328 327 332
162 150 145 150 150 146 147 160 164 161 162 161 161 160 151 154 154 151 149 149 148 148 145 141 140 140 137 140 140 137 133 128 128 132 136 127 117 114 108 105 98 89 90 80 67 66 49 28 33 47 30 23 15 359 346 340 318 320 320 322 324 329 336
149 145 147 150 151 157 153 159 162 163 162 161 159 154 154 156 153 153 152 153 150 150 145 143 146 148 148 143 142 139 134 135 140 139 130 130 127 116 106 102 98 101 92 75 63 69 46 33 41 29 9 5 351 359 332 311 308 311 316 313 329 326 334
149 148 150 152 154 154 162 162 170 166 159 164 157 155 159 155 155 156 156 155 153 151 149 151 150 149 143 147 140 138 141 138 139 135 122 115 114 111 108 98 100 95 82 86 75 59 53 22 26 29 4 358 351 353 327 315 314 313 314 315 322 323 329
149 153 152 155 157 156 164 166 170 162 165 163 157 161 160 158 161 157 160 157 155 153 154 154 152 149 148 143 140 137 132 136 134 127 129 125 115 111 110 106 97 89 79 69 62 56 43 31 15 20 11 352 345 338 319 309 311 313 312 318 319 326 334
151 156 156 157 161 160 167 164 168 166 166 163 160 164 161 162 161 160 160 157 157 156 152 155 151 150 147 145 139 138 138 137 133 131 128 119 114 107 100 96 89 76 77 74 62 35 26 16 14 14 10 343 343 331 316 322 320 317 323 325 324 335 333
155 160 156 156 164 166 168 163 170 168 166 163 166 165 164 162 161 163 157 159 156 155 156 158 156 154 151 144 143 143 143 141 136 132 121 115 111 109 109 98 82 69 57 43 34 37 18 5 347 22 10 351 338 328 325 324 324 332 332 330 334 340 339
170 163 155 158 160 169 168 168 173 169 167 164 169 165 164 163 163 163 157 159 157 157 161 159 159 159 151 149 147 147 147 142 139 133 132 124 118 112 102 83 73 74 63 58 38 29 20 0 348 3 9 353 340 333 333 331 336 342 336 332 341 343 340
170 158 158 162 160 170 165 172 173 170 169 167 168 165 166 164 168 163 162 160 157 160 159 166 130 138 149 153 152 148 145 144 145 141 136 131 125 110 97 94 90 94 117 133 137 134 283 317 337 342 352 356 352 344 340 338 340 347 337 334 351 345 345
165 157 161 163 160 173 170 179 172 174 171 168 169 166 170 168 171 167 166 164 159 164 166 122 94 75 60 113 151 145 150 148 143 143 139 139 132 126 124 120 135 157 177 191 197 201 205 224 246 274 291 299 314 329 347 343 345 342 340 336 347 350 348
160 159 162 163 161 177 174 179 173 177 171 169 170 168 172 171 172 168 168 165 164 166 153 114 105 93 82 56 13 142 151 147 150 147 150 144 144 142 141 147 149 169 203 238 212 185 205 210 217 227 235 237 245 268 279 312 335 341 340 336 343 351 346
159 160 165 162 162 181 179 174 178 178 172 169 169 172 174 171 172 169 171 167 166 167 140 131 119 120 104 75 12 307 153 153 162 154 155 158 157 154 160 158 162 174 111 89 268 235 197 195 218 223 218 220 242 246 257 262 262 275 305 316 339 337 353
156 159 159 158 161 177 176 178 179 174 168 168 172 173 175 173 174 172 174 171 167 169 142 139 136 135 138 132 235 330 167 158 161 157 161 160 166 162 166 170 166 178 175 213 261 310 301 264 219 220 213 212 222 224 232 244 249 254 259 274 316 333 335
154 156 157 158 161 174 190 169 177 172 170 172 173 175 175 175 175 173 175 173 170 168 137 146 144 147 147 183 187 321 195 159 167 161 170 162 177 154 185 193 198 162 161 185 62 18 327 313 303 286 281 239 222 207 208 215 228 260 266 288 322 321 322
154 157 159 162 166 165 170 172 173 169 170 170 170 172 175 177 173 175 172 174 173 157 143 153 149 153 159 191 163 213 191 168 183 176 175 166 183 173 176 185 195 188 159 139 106 84 305 316 302 292 269 265 262 245 219 150 222 232 253 289 301 304 302
155 158 160 163 166 168 170 169 170 171 157 148 177 169 173 179 172 174 171 178 174 153 149 160 154 159 166 185 180 207 198 187 198 178 179 183 192 181 177 190 202 181 194 154 132 180 290 337 294 283 277 278 274 276 296 172 204 221 232 240 250 256 262
156 159 161 165 166 166 168 167 172 164 160 170 160 157 176 175 176 173 177 178 175 151 153 164 162 165 172 183 196 202 211 209 187 188 197 183 192 196 150 74 10 271 204 158 141 177 269 296 291 288 280 284 284 282 303 335 312 243 223 235 246 250 251
155 159 163 165 163 163 167 165 164 160 163 162 162 167 163 148 149 177 179 187 178 166 154 166 173 168 176 182 195 209 216 201 204 204 196 182 193 201 157 164 186 274 20 78 126 173 263 283 292 301 301 284 287 298 343 331 307 312 321 315 305 288 277
156 159 159 154 153 154 153 159 161 165 156 151 152 159 163 168 175 182 177 190 171 193 156 165 179 176 178 182 197 215 217 204 203 192 214 200 186 211 195 183 167 173 136 150 155 203 270 272 280 308 308 299 310 314 348 319 303 305 303 298 302 305 312
152 150 148 148 147 147 156 158 159 160 155 156 160 164 170 168 173 176 174 184 177 193 166 166 170 179 179 181 197 217 248 243 211 190 194 198 205 199 203 205 190 165 175 177 203 225 257 269 275 293 294 310 353 342 320 296 298 289 282 292 307 317 325
112 124 136 140 147 151 154 154 161 163 168 162 159 160 165 171 172 175 176 187 179 189 162 161 164 178 178 183 196 209 229 241 21 291 193 202 211 216 209 196 199 159 173 178 200 224 245 263 278 279 296 345 320 306 287 294 291 284 292 312 321 320 334
129 126 125 131 138 141 142 147 154 151 158 150 154 156 169 172 178 180 180 187 180 189 180 155 149 167 181 183 192 203 225 255 356 320 245 212 208 226 216 196 121 149 166 176 192 215 244 259 271 254 267 285 283 274 277 279 281 279 301 313 312 326 332
139 137 136 136 136 138 145 147 141 155 149 152 160 167 176 179 185 184 185 189 182 185 184 163 155 163 172 183 186 199 217 218 264 287 307 300 259 241 282 141 135 147 157 172 191 217 240 243 252 273 279 282 280 279 278 280 270 278 304 303 316 327 330